Back to catalog

DELTA 1 R/B(1)

AliveLEO
NORAD 10954·ROCKET BODY·🇺🇸 United States

Launched Jun 16, 1978 from Cape Canaveral Space Force Station

Loading…

Next Passes (next 24 hours)

TLE

FreshSource: Space-Track

Epoch: Sep 14, 2026, 08:36 UTC

1 10954U 78062B   26257.35835709  .00000261  00000-0  46120-4 0  9990
2 10954  28.4260 270.7210 0684770 131.9714 234.1262 13.54265186373543

Track DELTA 1 R/B(1) in real time with AllMySat

Download on the App Store